EW5401 Weather Reports


Display with metric or nautical units.
time (UTC)temp
F
wind
direction
speed
MPH
gust
MPH
rain 1hr
in
rain 24hr
in
rain mn
in
humidity
%
barometer
mb
20260505194513 83 332 6.0 20.0 0.00 0.00 0.00 32 1004.0
20260505193011 82 236 8.0 25.0 0.00 0.00 0.00 33 1004.1
20260505191512 82 306 10.0 20.0 0.00 0.00 0.00 33 1004.2
20260505190011 81 277 6.0 18.0 0.00 0.00 0.00 36 1004.3
20260505184504 81 360 6.0 14.0 0.00 0.00 0.00 37 1004.8
20260505183002 81 247 4.0 14.0 0.00 0.00 0.00 38 1005.0
20260505181559 80 258 5.0 15.0 0.00 0.00 0.00 41 1004.9
20260505174559 81 208 4.0 16.0 0.00 0.00 0.00 40 1005.2
20260505173057 80 113 5.0 21.0 0.00 0.00 0.00 43 1005.4
20260505171551 80 202 8.0 21.0 0.00 0.00 0.00 41 1005.3
20260505170104 79 213 2.0 11.0 0.00 0.00 0.00 43 1005.6
20260505164547 79 148 4.0 17.0 0.00 0.00 0.00 44 1005.9
20260505163042 78 109 5.0 15.0 0.00 0.00 0.00 45 1006.1
20260505161538 77 218 4.0 13.0 0.00 0.00 0.00 45 1006.4
20260505153031 78 219 3.0 14.0 0.00 0.00 0.00 46 1006.8
20260505151536 77 221 4.0 16.0 0.00 0.00 0.00 48 1007.2
20260505124559 67 191 2.0 5.0 0.00 0.00 0.00 58 1008.3
20260505123055 65 217 1.0 7.0 0.00 0.00 0.00 61 1008.4
20260505121611 62 187 1.0 3.0 0.00 0.00 0.00 65 1008.4
20260505120046 60 206 1.0 8.0 0.00 0.00 0.00 66 1008.7
20260505114542 59 244 1.0 6.0 0.00 0.00 0.00 71 1008.8
20260505113042 58 224 2.0 6.0 0.00 0.00 0.00 70 1008.6
20260505111543 56 168 0.0 4.0 0.00 0.00 0.00 75 1008.5
20260505101546 52 200 0.0 3.0 0.00 0.00 0.00 78 1007.9
20260505100036 52 275 0.0 2.0 0.00 0.00 0.00 77 1007.8
20260505094537 53 200 0.0 2.0 0.00 0.00 0.00 76 1007.6
20260505093040 53 212 0.0 3.0 0.00 0.00 0.00 74 1007.6
20260505091532 54 179 0.0 1.0 0.00 0.00 0.00 74 1007.5
20260505090043 54 209 0.0 3.0 0.00 0.00 0.00 73 1007.6
20260505084530 53 223 1.0 5.0 0.00 0.00 0.00 75 1007.5
20260505083032 52 303 0.0 3.0 0.00 0.00 0.00 76 1007.7
20260505081532 52 223 1.0 4.0 0.00 0.00 0.00 76 1008.1
20260505080026 52 193 0.0 2.0 0.00 0.00 0.00 76 1007.9
20260505074524 51 173 0.0 3.0 0.00 0.00 0.00 76 1008.0
20260505073030 52 123 0.0 0.0 0.00 0.00 0.00 75 1007.9
20260505071520 53 123 0.0 0.0 0.00 0.00 0.00 73 1008.0
20260505070018 53 123 0.0 3.0 0.00 0.00 0.00 73 1008.1
20260505064517 53 213 0.0 0.0 0.00 0.00 0.00 73 1008.3
20260505063014 54 173 0.0 2.0 0.00 0.00 0.00 71 1008.2
20260505061509 54 191 0.0 1.0 0.00 0.00 0.00 70 1008.4
20260505060022 55 191 0.0 3.0 0.00 0.00 0.00 68 1008.4
20260505054505 56 209 1.0 3.0 0.00 0.00 0.00 68 1008.6
20260505053001 57 161 0.0 2.0 0.00 0.00 0.00 65 1008.7
20260505051501 57 240 2.0 9.0 0.00 0.00 0.00 65 1008.6
20260505041553 59 238 0.0 5.0 0.00 0.00 0.00 61 1008.7
20260505040052 59 194 0.0 7.0 0.00 0.00 0.00 61 1008.6
20260505034551 59 227 1.0 10.0 0.00 0.00 0.00 61 1008.6
20260505033110 59 188 2.0 10.0 0.00 0.00 0.00 60 1008.6
20260505031550 59 191 2.0 8.0 0.00 0.00 0.00 60 1008.6
20260505030052 59 215 3.0 8.0 0.00 0.00 0.00 60 1008.7
20260505024550 59 198 1.0 9.0 0.00 0.00 0.00 59 1008.6
20260505023059 59 195 2.0 7.0 0.00 0.00 0.00 59 1008.5
20260505021548 60 242 2.0 8.0 0.00 0.00 0.00 58 1008.6
20260505020051 60 187 2.0 14.0 0.00 0.00 0.00 57 1008.5
20260505014547 61 199 1.0 6.0 0.00 0.00 0.00 57 1008.4
20260505013046 61 136 0.0 6.0 0.00 0.00 0.00 55 1008.3
20260505011549 62 192 2.0 9.0 0.00 0.00 0.00 53 1008.1
20260505010046 61 103 3.0 11.0 0.00 0.00 0.00 53 1007.8
20260505004549 59 222 0.0 1.0 0.00 0.00 0.00 56 1007.4
20260505003044 61 222 0.0 0.0 0.00 0.00 0.00 53 1007.1
20260505001544 63 222 0.0 0.0 0.00 0.00 0.00 49 1006.9
20260505000047 65 192 0.0 5.0 0.00 0.00 0.00 43 1006.8
20260504234609 66 216 2.0 6.0 0.00 0.00 0.00 42 1006.6
20260504233042 67 182 4.0 9.0 0.00 0.00 0.00 41 1006.5
20260504231552 67 241 3.0 10.0 0.00 0.00 0.00 39 1006.5
20260504230041 68 238 4.0 9.0 0.00 0.00 0.00 38 1006.2
20260504224541 69 217 3.0 12.0 0.00 0.00 0.00 39 1005.9
20260504223039 70 202 3.0 17.0 0.00 0.00 0.00 37 1006.0
20260504221538 71 210 2.0 9.0 0.00 0.00 0.00 37 1006.0
20260504220036 70 218 5.0 13.0 0.00 0.00 0.00 35 1006.3
20260504214539 70 185 1.0 11.0 0.00 0.00 0.00 38 1006.3
20260504213034 71 251 3.0 10.0 0.00 0.00 0.00 35 1006.3
20260504211531 71 157 3.0 14.0 0.00 0.00 0.00 37 1006.4
20260504210029 70 184 5.0 16.0 0.00 0.00 0.00 36 1006.5
20260504204556 69 229 3.0 11.0 0.00 0.00 0.00 37 1006.6
20260504203028 69 245 3.0 11.0 0.00 0.00 0.00 39 1006.6
20260504201524 69 217 2.0 10.0 0.00 0.00 0.00 39 1006.7
20260504200029 69 230 3.0 9.0 0.00 0.00 0.00 37 1006.9